[[{"header":{"parameterUnit":"m.s-1","parameterCategory":1,"la1":30.2991,"la2":30.254,"lo1":-89.0895,"lo2":-89.0444,"dy":0.0017,"dx":0.0017,"nx":28,"ny":28,"refTime":"2024-10-20T21:00:00:Z","depth":0,"parameterNumber":2,"parameterNumberName":"U-component_of_WINDS"},"data":[0,0,0,0,0,0,0,0,0,0,0,0,0,0,0,0,0,0,0,0,0,0,0,0,0,0,0,0,0,0,0,0,0,0,0,0,0,0,0,0,0,0,0,0,0,0,0,0,0,0,0,0,0,0,0,0,0,0,-1.208,-1.208,0,-1.2101,-1.2101,-1.2102,-1.2131,-1.2132,-1.2132,-1.2133,-1.2154,-1.2154,-1.2154,0,0,0,0,0,0,0,0,0,0,0,0,0,-1.2066,-1.2066,-1.208,-1.208,-1.2081,-1.2101,-1.2102,-1.2102,-1.2131,-1.2132,-1.2132,-1.2133,-1.2153,-1.2154,-1.2154,0,0,0,0,0,0,0,0,0,0,0,0,0,-1.2078,-1.2066,-1.208,-1.2098,-1.21,-1.2101,-1.2102,-1.2102,-1.2131,-1.2132,-1.2132,-1.2133,-1.2153,-1.2154,-1.2154,-1.2139,0,0,-1.2154,-1.2154,0,0,0,0,0,0,0,0,-1.2077,-1.2078,-1.2095,-1.2097,-1.2099,-1.2114,-1.2104,-1.2114,-1.2131,-1.2119,-1.2133,-1.2133,-1.214,-1.2141,-1.2143,-1.214,-1.2141,-1.2154,-1.2154,-1.2154,-1.2154,0,0,0,0,0,0,0,-1.2076,-1.2078,-1.2089,-1.2095,-1.2097,-1.2105,-1.2107,-1.2106,-1.2125,-1.212,-1.2122,-1.2124,-1.2141,-1.2143,-1.2144,-1.2142,-1.2154,-1.2154,-1.2154,-1.2154,-1.2129,-1.2128,0,0,0,0,0,0,-1.2073,-1.2077,-1.2088,-1.2089,-1.209,-1.2104,-1.2107,-1.2109,-1.2125,-1.2128,-1.2124,-1.2126,-1.2143,-1.2144,-1.2145,-1.213,-1.2154,-1.2154,-1.2154,-1.213,-1.2129,-1.2128,0,0,0,0,0,0,-1.2072,-1.2074,-1.2087,-1.2084,-1.2086,-1.2104,-1.2105,-1.2109,-1.2111,-1.2128,-1.2131,-1.2122,-1.2143,-1.2145,-1.2141,-1.2131,-1.2154,-1.2155,-1.2131,-1.213,-1.2129,-1.2099,0,0,0,0,0,0,-1.2072,-1.2073,-1.2068,-1.2083,-1.2086,-1.2082,-1.2104,-1.2108,-1.2111,-1.2114,-1.2128,-1.2131,-1.2144,-1.2141,-1.2141,-1.2131,-1.2155,-1.2132,-1.213,-1.2129,-1.2101,-1.2097,-1.2093,0,0,0,0,0,-1.2071,-1.2058,-1.2067,-1.2069,-1.208,-1.2082,-1.2083,-1.2099,-1.211,-1.2105,-1.2116,-1.213,-1.2132,-1.214,-1.2141,-1.2131,-1.2132,-1.2131,-1.2129,-1.2102,-1.2098,-1.2094,0,0,0,0,0,0,-1.2041,-1.2061,-1.2071,-1.2062,-1.207,-1.2087,-1.208,-1.2093,-1.2098,-1.21,-1.212,-1.2123,-1.2116,-1.2123,-1.2132,-1.2119,-1.2134,-1.2133,-1.2114,-1.211,-1.2106,-1.2104,-1.2155,0,0,0,0,0,-1.2033,-1.2033,-1.2051,-1.2041,-1.2045,-1.2062,-1.2063,-1.2075,-1.2084,-1.2087,-1.2098,-1.2106,-1.2108,-1.2109,-1.2113,-1.2102,-1.2106,-1.2096,-1.2093,-1.209,-1.2088,-1.2083,-1.2079,-1.2123,-1.2123,-1.2123,0,0,-1.2017,-1.2028,-1.2026,-1.2036,-1.2043,-1.2043,-1.2064,-1.2063,-1.2063,-1.2087,-1.2084,-1.2092,-1.2102,-1.2095,-1.2093,-1.2101,-1.2077,-1.2087,-1.2085,-1.2085,-1.2081,-1.2077,-1.2073,-1.2121,-1.2122,-1.2122,0,0,-1.1987,-1.1996,-1.1989,-1.1996,-1.2008,-1.2019,-1.2018,-1.2033,-1.2039,-1.2037,-1.2055,-1.2055,-1.2059,-1.2066,-1.207,-1.2044,-1.2058,-1.2045,-1.2026,-1.2021,-1.2018,-1.2015,-1.2006,-1.2002,-1.2043,-1.2043,-1.2043,0,-1.1966,-1.1966,-1.1984,-1.1982,-1.1986,-1.2008,-1.2002,-1.2008,-1.2019,-1.2021,-1.2031,-1.2037,-1.2045,-1.204,-1.2034,-1.2037,-1.2036,-1.2043,-1.2017,-1.2014,-1.2012,-1.2003,-1.2,-1.2042,-1.2042,-1.2042,-1.2042,0,-1.1939,-1.1939,-1.1933,-1.1944,-1.1947,-1.1943,-1.196,-1.1961,-1.1973,-1.1984,-1.1982,-1.1993,-1.1999,-1.1999,-1.201,-1.1996,-1.2001,-1.2013,-1.2029,-1.2006,-1.1998,-1.1995,-1.2039,-1.204,-1.204,-1.2041,0,0,-1.189,-1.1912,-1.1909,-1.1915,-1.1929,-1.193,-1.1927,-1.1933,-1.1934,-1.1942,-1.194,-1.1943,-1.1955,-1.196,-1.1972,-1.1968,-1.1948,-1.1982,-1.1982,-1.1975,-1.1933,-1.1924,-1.192,-1.1957,-1.1957,-1.1957,-1.1933,0,-1.1863,-1.1859,-1.1876,-1.1868,-1.1868,-1.189,-1.1888,-1.1897,-1.1907,-1.1909,-1.1921,-1.1923,-1.1939,-1.1942,-1.1939,-1.1951,-1.194,-1.1953,-1.1956,-1.1956,-1.1952,-1.1916,-1.1905,-1.1882,-1.193,-1.1929,-1.1929,0,-1.183,-1.1837,-1.1829,-1.1845,-1.1846,-1.1843,-1.1851,-1.1853,-1.1864,-1.1872,-1.1877,-1.1892,-1.1891,-1.1907,-1.1906,-1.1915,-1.1917,-1.1923,-1.1923,-1.1923,-1.194,-1.1915,-1.1875,-1.1871,-1.1925,-1.1925,-1.1925,0,-1.1795,-1.1802,-1.1798,-1.1802,-1.1821,-1.1818,-1.1826,-1.1838,-1.1841,-1.1848,-1.185,-1.1857,-1.186,-1.1866,-1.1882,-1.1892,-1.1879,-1.1896,-1.1886,-1.1885,-1.1881,-1.1881,-1.1841,-1.1883,-1.1884,-1.1884,-1.1884,0,-1.1763,-1.1757,-1.1782,-1.178,-1.1774,-1.1794,-1.1788,-1.1798,-1.1809,-1.1809,-1.1829,-1.1828,-1.185,-1.1853,-1.1866,-1.1863,-1.1865,-1.1871,-1.1875,-1.1869,-1.1868,-1.1871,-1.1872,-1.1883,-1.1883,-1.1883,-1.1883,0,-1.1721,-1.1738,-1.1736,-1.1754,-1.1758,-1.1754,-1.1769,-1.1768,-1.178,-1.1781,-1.1782,-1.1801,-1.1805,-1.1822,-1.183,-1.1839,-1.1832,-1.1839,-1.1828,-1.183,-1.1819,-1.1819,-1.1778,-1.1774,-1.1819,-1.1819,-1.1818,0,-1.1699,-1.1696,-1.1714,-1.1716,-1.1722,-1.1725,-1.1728,-1.1748,-1.1751,-1.1764,-1.1761,-1.1767,-1.1773,-1.1778,-1.1793,-1.18,-1.1807,-1.1792,-1.1808,-1.1803,-1.1807,-1.1806,-1.1806,-1.1788,-1.1787,-1.1787,-1.1787,0,-1.1659,-1.1668,-1.1672,-1.168,-1.1683,-1.169,-1.1698,-1.1699,-1.1721,-1.1723,-1.1728,-1.1732,-1.1741,-1.1747,-1.1756,-1.1764,-1.1779,-1.1782,-1.178,-1.1774,-1.1768,-1.1771,-1.1818,-1.1782,-1.1783,-1.1783,-1.1783,-1.1783,-1.1627,-1.1624,-1.1637,-1.1642,-1.165,-1.1657,-1.1657,-1.167,-1.1674,-1.1683,-1.1695,-1.1698,-1.171,-1.1724,-1.1731,-1.1735,-1.1743,-1.174,-1.1739,-1.1738,-1.1735,-1.1768,-1.1736,-1.1736,-1.1737,-1.1737,-1.1737,0,-1.1587,-1.1596,-1.16,-1.1611,-1.1615,-1.163,-1.164,-1.1642,-1.1644,-1.1654,-1.166,-1.1666,-1.1672,-1.1687,-1.1695,-1.1694,-1.1701,-1.1696,-1.1696,-1.1697,-1.1727,-1.1728,-1.169,-1.169,-1.169,-1.169,-1.169,-1.169,-1.1567,-1.1564,-1.1574,-1.1576,-1.1586,-1.159,-1.1594,-1.1601,-1.161,-1.1615,-1.162,-1.1631,-1.1643,-1.1652,-1.1659,-1.1663,-1.1665,-1.1657,-1.1664,-1.1691,-1.1695,-1.1699,-1.1701,-1.1657,-1.1657,-1.1634,-1.1633,-1.1633]},{"header":{"parameterUnit":"m.s-1","parameterCategory":1,"la1":30.2991,"la2":30.254,"lo1":-89.0895,"lo2":-89.0444,"dy":0.0017,"dx":0.0017,"nx":28,"ny":28,"refTime":"2024-10-20T21:00:00:Z","depth":0,"parameterNumber":3,"parameterNumberName":"V-component_of_WINDS"},"data":[0,0,0,0,0,0,0,0,0,0,0,0,0,0,0,0,0,0,0,0,0,0,0,0,0,0,0,0,0,0,0,0,0,0,0,0,0,0,0,0,0,0,0,0,0,0,0,0,0,0,0,0,0,0,0,0,0,0,-1.8321,-1.8322,0,-1.8384,-1.8384,-1.8385,-1.8421,-1.8421,-1.8422,-1.8422,-1.8485,-1.8486,-1.8488,0,0,0,0,0,0,0,0,0,0,0,0,0,-1.8233,-1.8234,-1.8321,-1.8322,-1.8322,-1.8384,-1.8384,-1.8385,-1.8421,-1.8421,-1.8422,-1.8422,-1.8484,-1.8486,-1.8488,0,0,0,0,0,0,0,0,0,0,0,0,0,-1.8281,-1.8235,-1.8321,-1.8348,-1.8351,-1.8383,-1.8384,-1.8386,-1.8421,-1.8421,-1.8422,-1.8422,-1.8484,-1.8486,-1.8488,-1.8499,0,0,-1.8496,-1.8497,0,0,0,0,0,0,0,0,-1.8278,-1.8284,-1.8343,-1.8346,-1.8349,-1.8395,-1.8377,-1.8423,-1.8421,-1.8394,-1.8422,-1.8422,-1.8455,-1.846,-1.8471,-1.8502,-1.8504,-1.8496,-1.8497,-1.8498,-1.8499,0,0,0,0,0,0,0,-1.8275,-1.8281,-1.8346,-1.8344,-1.8348,-1.8357,-1.8364,-1.8386,-1.8423,-1.8397,-1.84,-1.8407,-1.8457,-1.8468,-1.8473,-1.8505,-1.8496,-1.8498,-1.8499,-1.85,-1.855,-1.855,0,0,0,0,0,0,-1.8267,-1.8278,-1.8344,-1.8348,-1.8314,-1.8358,-1.8366,-1.838,-1.8422,-1.8429,-1.8406,-1.8408,-1.8464,-1.847,-1.8475,-1.8491,-1.8498,-1.85,-1.8502,-1.8551,-1.855,-1.855,0,0,0,0,0,0,-1.8265,-1.8272,-1.8341,-1.8314,-1.8323,-1.836,-1.8375,-1.8381,-1.8393,-1.843,-1.8436,-1.8412,-1.8465,-1.8472,-1.8493,-1.8494,-1.8501,-1.8504,-1.8551,-1.855,-1.855,-1.8523,0,0,0,0,0,0,-1.8262,-1.8272,-1.8275,-1.8314,-1.8325,-1.8358,-1.8375,-1.8382,-1.8397,-1.84,-1.8436,-1.8443,-1.8465,-1.8489,-1.8495,-1.8497,-1.8505,-1.8551,-1.8551,-1.855,-1.8524,-1.8522,-1.852,0,0,0,0,0,-1.8259,-1.8264,-1.8275,-1.8283,-1.833,-1.8358,-1.8364,-1.839,-1.8397,-1.8402,-1.8426,-1.8442,-1.8493,-1.8491,-1.8498,-1.8501,-1.8551,-1.8551,-1.855,-1.8525,-1.8522,-1.852,0,0,0,0,0,0,-1.8224,-1.827,-1.8282,-1.83,-1.8325,-1.8364,-1.837,-1.8386,-1.8409,-1.8411,-1.8443,-1.8451,-1.8469,-1.8487,-1.8485,-1.8514,-1.8524,-1.8525,-1.8502,-1.85,-1.8498,-1.8493,-1.8507,0,0,0,0,0,-1.8218,-1.8237,-1.8276,-1.8288,-1.83,-1.8333,-1.8346,-1.8364,-1.8391,-1.8401,-1.8427,-1.8452,-1.8474,-1.8488,-1.851,-1.8527,-1.8536,-1.8532,-1.8531,-1.8529,-1.8529,-1.8542,-1.8541,-1.855,-1.855,-1.855,0,0,-1.8206,-1.8234,-1.8243,-1.8282,-1.8303,-1.8322,-1.8341,-1.836,-1.8375,-1.8404,-1.8426,-1.8446,-1.8477,-1.8497,-1.8506,-1.8512,-1.8529,-1.8529,-1.8527,-1.8529,-1.8542,-1.8541,-1.854,-1.855,-1.855,-1.855,0,0,-1.8195,-1.8217,-1.8231,-1.8252,-1.8285,-1.8308,-1.8311,-1.8348,-1.8363,-1.8386,-1.8409,-1.8427,-1.8464,-1.8486,-1.8501,-1.8502,-1.8518,-1.8508,-1.8498,-1.851,-1.8509,-1.8508,-1.851,-1.851,-1.8509,-1.8508,-1.8508,0,-1.8176,-1.8206,-1.8235,-1.8254,-1.827,-1.8299,-1.8314,-1.8333,-1.8371,-1.8382,-1.8388,-1.8437,-1.846,-1.8486,-1.8486,-1.8498,-1.8503,-1.8503,-1.8507,-1.8506,-1.8506,-1.8508,-1.8508,-1.8507,-1.8507,-1.8507,-1.8508,0,-1.8182,-1.8202,-1.8209,-1.8247,-1.8264,-1.828,-1.8313,-1.8327,-1.8345,-1.8367,-1.8392,-1.842,-1.845,-1.8457,-1.8474,-1.8487,-1.8489,-1.8501,-1.8511,-1.8504,-1.8506,-1.8507,-1.8505,-1.8506,-1.8506,-1.8506,0,0,-1.8147,-1.8203,-1.8205,-1.8224,-1.8263,-1.828,-1.8298,-1.8328,-1.8341,-1.8367,-1.8384,-1.8416,-1.8427,-1.8445,-1.8465,-1.8475,-1.8476,-1.8486,-1.8487,-1.8484,-1.8493,-1.8485,-1.8485,-1.8487,-1.8487,-1.8487,-1.8491,0,-1.8142,-1.8177,-1.8205,-1.8229,-1.825,-1.8279,-1.8296,-1.8322,-1.8344,-1.8365,-1.8389,-1.8412,-1.8424,-1.8436,-1.8447,-1.8473,-1.8478,-1.8473,-1.8504,-1.8504,-1.8495,-1.8486,-1.8476,-1.8478,-1.8492,-1.8492,-1.8492,0,-1.814,-1.8167,-1.8193,-1.8233,-1.8243,-1.8257,-1.8288,-1.8307,-1.8339,-1.8354,-1.8376,-1.8397,-1.8419,-1.8428,-1.8459,-1.8455,-1.847,-1.8485,-1.8485,-1.8489,-1.8498,-1.849,-1.8479,-1.8479,-1.8494,-1.8493,-1.8493,0,-1.8114,-1.8156,-1.8178,-1.8193,-1.824,-1.8249,-1.8269,-1.8301,-1.8318,-1.8346,-1.8357,-1.8386,-1.8402,-1.8425,-1.8454,-1.8458,-1.8483,-1.8494,-1.8497,-1.8497,-1.8501,-1.85,-1.8493,-1.851,-1.851,-1.851,-1.851,0,-1.8105,-1.812,-1.8167,-1.818,-1.8199,-1.8233,-1.825,-1.8273,-1.8302,-1.8321,-1.8348,-1.8365,-1.8403,-1.8425,-1.8448,-1.8472,-1.8478,-1.8492,-1.8498,-1.849,-1.8488,-1.8499,-1.85,-1.851,-1.851,-1.851,-1.851,0,-1.8078,-1.811,-1.8136,-1.818,-1.8191,-1.8203,-1.824,-1.8255,-1.828,-1.8304,-1.8311,-1.8349,-1.8377,-1.8409,-1.8447,-1.8463,-1.8485,-1.8493,-1.8474,-1.8478,-1.848,-1.848,-1.848,-1.8482,-1.8497,-1.8496,-1.8496,0,-1.807,-1.8083,-1.8129,-1.8144,-1.8163,-1.8187,-1.8205,-1.8239,-1.8257,-1.8296,-1.8306,-1.8337,-1.8362,-1.8406,-1.8437,-1.8467,-1.8477,-1.8475,-1.8482,-1.8474,-1.8478,-1.8477,-1.8479,-1.8473,-1.8473,-1.8473,-1.8472,0,-1.8053,-1.8069,-1.8095,-1.8126,-1.8148,-1.8174,-1.8201,-1.8212,-1.8252,-1.8271,-1.8301,-1.8321,-1.8361,-1.8391,-1.8426,-1.8447,-1.8467,-1.847,-1.8473,-1.8465,-1.8453,-1.8461,-1.847,-1.847,-1.847,-1.847,-1.847,-1.8471,-1.8036,-1.805,-1.8085,-1.8113,-1.8138,-1.8164,-1.818,-1.8208,-1.8233,-1.8269,-1.8288,-1.8317,-1.8351,-1.84,-1.8421,-1.8445,-1.8451,-1.8455,-1.8456,-1.8456,-1.8454,-1.845,-1.8451,-1.8451,-1.8451,-1.8451,-1.8452,0,-1.8022,-1.8046,-1.8072,-1.8111,-1.8133,-1.8151,-1.8183,-1.8201,-1.8227,-1.8257,-1.8283,-1.8318,-1.8348,-1.8383,-1.8415,-1.8428,-1.8438,-1.8436,-1.8435,-1.844,-1.8446,-1.8441,-1.8427,-1.8427,-1.8427,-1.8427,-1.8427,-1.8427,-1.8017,-1.8041,-1.8062,-1.81,-1.8125,-1.8154,-1.8171,-1.8196,-1.8221,-1.8259,-1.8284,-1.8307,-1.834,-1.8376,-1.8405,-1.8415,-1.8426,-1.8421,-1.8433,-1.8438,-1.844,-1.8441,-1.8437,-1.8423,-1.8423,-1.8425,-1.8425,-1.8425]}]]